Location: Colonia Mina de C?rbuni
(46.1667°N, 22.7167°E)
Time: 15:50:49
(UTC+00:00)

Courier 1B - Pass Details

Date: 27 April 2024
Orbit: 962 x 1208 km, 28.3° (Epoch: 23 May)

Event Time Altitude Azimuth Distance (km) Brightness Sun altitude
Rises 23:18:05 0° 240° (WSW) 4,098 - -28.5°
Reaches altitude 10° 23:21:51 10° 225° (SW) 3,116 - -28.3°
Maximum altitude 23:27:02 20° 182° (S) 2,435 - -28.1°
Drops below altitude 10° 23:32:05 10° 140° (SE) 3,024 - -27.8°
Exits shadow 23:35:17 - 125° (SE) 3,829 10.5 -27.6°
Sets 23:35:40 0° 123° (ESE) 3,940 10.5 -27.6°
